Location: Newark
(45.4422°N, 16.2769°E)
Time: 10:23:15
(UTC+00:00)

Tiros 1 despin weight - Pass Details

Date: 16 December 2019
Orbit: 593 x 643 km, 48.2° (Epoch: 20 January)

Event Time Altitude Azimuth Distance (km) Brightness Sun altitude
Exits shadow 06:29:50 - 289° (WNW) 2,874 ? -0.6°
Rises 06:29:50 0° 289° (WNW) 2,871 ? -0.6°
Reaches altitude 10° 06:32:10 10° 288° (WNW) 1,957 ? -0.3°
Maximum altitude 06:36:38 77° 204° (SSW) 621 ? 0.4°
Drops below altitude 10° 06:41:03 10° 118° (ESE) 1,927 ? 1.0°
Sets 06:43:19 0° 117° (ESE) 2,823 ? 1.3°
